Probability
0 0 0 0 0 0 0 0 0 0 0 0 0 0 0 0 0 0 0 0 0 0 0 0 0 0 0 1 3 3 3 3 2 2 1 0 0 0 0 0 0 1 2 3
0 0 0 0 0 0 0 0 0 0 0 0 0 0 0 0 0 0 0 0 0 0 0 0 0 0 1 2 3 3 3 3 1 1 0 0 0 0 0 0 0 0 1 2
0 0 0 0 0 0 0 0 0 0 0 0 0 0 0 0 0 0 0 0 0 0 0 0 0 1 2 3 3 2 2 2 1 0 0 0 0 0 0 0 0 0 0 1
0 0 0 0 0 0 0 0 0 0 0 0 0 0 0 0 0 0 0 0 0 0 0 0 1 2 3 2 1 1 1 1 1 0 0 0 0 0 0 0 0 0 0 0
0 0 0 0 0 0 0 0 0 0 0 0 0 0 0 0 0 0 0 0 0 0 0 0 1 2 2 1 0 0 0 1 1 0 0 0 0 0 0 0 0 0 0 0
0 0 0 0 0 0 0 0 0 0 0 0 0 0 0 0 0 0 0 0 0 0 0 0 0 1 1 0 0 0 0 0 0 0 0 0 0 0 0 0 0 0 0 0
0 0 0 0 0 0 0 0 0 0 0 0 0 0 0 0 0 0 0 0 0 0 0 0 0 0 0 0 0 0 0 0 0 0 0 0 0 0 0 0 0 0 0 0
0 0 0 0 0 0 0 0 0 0 0 0 0 0 0 0 0 0 0 0 0 0 0 0 0 0 0 0 0 0 0 0 0 0 0 0 1 1 0 0 0 0 0 0
0 0 0 0 0 0 0 0 0 0 0 0 0 0 0 0 0 0 0 0 0 0 0 0 0 0 0 0 0 0 0 0 0 0 0 1 2 1 0 0 0 0 0 0
0 0 0 0 0 0 0 0 0 0 0 0 0 0 0 0 0 0 0 0 0 0 0 0 0 0 0 0 0 0 0 0 0 0 0 1 1 1 0 0 0 0 0 0
0 0 0 0 0 0 0 0 0 0 0 0 0 0 0 0 0 0 0 0 0 0 0 0 0 0 0 0 0 0 0 0 0 0 0 0 0 0 0 0 0 0 1 1
0 0 0 0 0 0 0 0 0 0 0 0 0 0 0 0 0 0 0 0 0 0 0 0 0 0 0 0 0 0 0 0 0 0 0 0 0 0 0 0 0 0 0 0
0 0 0 0 0 0 0 0 0 0 0 0 0 0 0 0 0 0 0 0 0 0 0 0 0 0 0 0 0 0 0 0 0 0 0 0 0 0 0 0 0 0 0 0
0 0 0 0 0 0 0 0 0 0 0 0 0 0 0 0 0 0 0 0 0 0 0 0 0 0 0 0 0 0 0 0 0 0 0 0 0 0 0 0 0 0 0 0
0 0 0 0 0 0 0 0 0 0 0 0 0 0 0 0 0 0 0 0 0 0 0 0 0 0 0 0 0 0 0 0 0 0 0 0 0 0 0 0 0 0 0 0
0 0 0 0 0 0 0 0 0 0 0 0 0 0 0 0 0 0 0 0 0 0 0 0 0 0 0 0 0 0 0 0 0 0 0 0 0 0 0 0 0 0 0 0
0 0 0 0 0 0 0 0 0 0 0 0 0 0 0 0 0 0 0 0 0 0 0 0 0 0 0 0 0 0 0 0 0 0 0 0 0 0 0 0 0 0 0 0
0 0 0 0 0 0 0 0 0 0 0 0 0 0 0 0 0 0 0 0 0 0 0 0 0 0 0 0 0 0 0 0 0 0 0 0 0 0 0 0 0 0 0 0
0 0 0 0 0 0 0 0 0 0 0 0 0 0 0 0 0 0 0 0 0 0 0 0 0 0 0 0 0 0 0 0 0 0 0 0 0 0 0 0 0 0 0 0
0 0 0 0 0 0 0 0 0 0 0 0 0 0 0 0 0 0 0 0 0 0 0 0 0 0 0 0 0 0 0 0 0 0 0 0 0 0 0 0 0 0 0 0
0 0 0 0 0 0 0 0 0 0 0 0 0 0 0 0 0 0 0 0 0 0 0 0 0 0 0 0 0 0 0 0 0 0 0 0 0 0 0 0 0 0 0 0
0 0 0 0 0 0 0 0 0 0 0 0 0 0 0 0 0 0 0 0 0 0 0 0 0 0 0 0 0 0 0 0 0 0 0 0 0 0 0 0 0 0 0 0
0 0 0 0 0 0 0 0 0 0 0 0 0 0 0 0 0 0 0 0 0 0 0 0 0 0 0 0 0 0 0 0 0 0 0 0 0 0 0 0 0 0 0 0
0 0 0 0 0 0 0 0 0 0 0 0 0 0 0 0 0 0 0 0 0 0 0 0 0 0 0 0 0 0 0 0 0 0 0 0 0 0 0 0 0 0 0 0
0 0 0 0 0 0 0 0 0 0 0 0 0 0 0 0 0 0 0 0 0 0 0 0 0 0 0 0 0 0 0 0 0 0 0 0 0 0 0 0 0 0 0 0
0 0 0 0 0 0 0 0 0 0 0 0 0 0 0 0 0 0 0 0 0 0 0 0 0 0 0 0 0 0 0 0 0 0 0 0 0 0 0 0 0 0 0 0
0 0 0 0 0 0 0 0 0 0 0 0 0 0 0 0 0 0 0 0 0 0 0 0 0 0 0 0 0 0 0 0 0 0 0 0 0 0 0 0 0 0 0 0
Wind_Speed
9 7 7 10 11 11 14 14 13 13 14 13 9 7 6 5 4 4 5 5 5 5 4 5 5 5 4 4 4 4 4 4 4 3 3 4 4 4 4 4 4 4 5 5
9 7 9 12 13 13 14 13 14 15 14 9 8 6 5 5 5 6 6 6 6 6 5 5 5 5 5 5 5 5 5 4 4 4 4 4 4 5 4 4 4 4 5 6
8 5 8 11 10 11 10 10 10 13 10 7 7 6 6 6 5 6 6 6 6 6 6 5 5 5 5 5 5 6 5 5 5 5 5 5 5 5 5 5 5 5 6 6
6 6 10 2 1 4 9 10 10 10 9 7 8 8 7 5 6 6 6 6 6 6 5 5 5 4 4 4 5 6 6 5 5 5 5 6 6 6 6 5 5 6 6 6
6 8 10 5 3 3 6 8 7 9 9 7 7 7 5 3 5 5 5 6 6 5 5 5 5 4 4 5 5 6 6 6 6 6 6 6 6 6 6 6 6 6 6 7
7 9 8 2 2 1 6 7 1 5 7 6 6 7 4 4 5 5 5 5 5 5 5 5 5 4 5 6 6 6 6 6 6 6 7 7 7 7 6 6 6 6 6 7
11 10 8 1 1 3 6 4 4 5 6 5 7 7 6 5 5 5 5 5 4 4 5 5 4 5 6 6 7 6 6 6 6 6 7 7 6 6 6 5 6 6 7 6
8 9 6 2 3 4 6 6 6 6 6 6 7 7 6 6 6 5 5 4 4 4 5 4 4 5 6 6 6 5 5 6 6 7 6 6 6 6 6 6 6 6 6 6
7 6 4 2 5 6 7 8 7 7 7 7 7 7 7 6 6 5 5 4 4 4 5 4 5 6 7 6 5 5 6 6 6 7 6 6 6 6 5 5 5 5 5 5
8 8 7 7 7 7 7 8 8 8 7 7 7 7 7 6 6 6 5 5 4 5 5 5 5 6 6 5 5 6 7 7 6 6 6 6 5 5 5 5 5 5 5 5
11 10 8 7 7 7 8 8 8 7 7 7 7 7 7 7 6 5 5 4 4 5 5 6 6 6 6 5 5 6 6 6 6 6 5 5 5 5 6 6 5 5 5 5
9 7 8 9 8 9 9 9 8 8 8 7 7 7 7 6 6 5 5 5 5 5 5 6 6 6 5 5 6 6 5 5 5 5 4 4 5 5 5 6 6 7 7 7
10 9 9 10 10 9 9 9 8 7 7 7 6 6 6 6 5 5 5 6 6 6 6 6 6 5 5 5 5 5 6 5 4 5 4 5 5 5 4 4 6 7 7 7
9 8 10 10 9 9 8 7 7 6 6 6 5 5 5 5 5 6 6 6 6 6 6 6 6 6 5 5 5 5 6 5 5 4 4 5 5 5 5 5 4 4 5 7
9 9 9 8 8 7 6 6 6 6 5 5 5 5 5 5 6 6 6 6 6 6 6 6 6 6 5 5 5 6 5 4 4 4 4 4 4 4 5 5 5 4 4 3
7 7 7 7 7 7 7 6 6 6 6 5 5 5 5 5 6 6 6 5 6 6 6 6 6 5 5 5 5 5 4 4 4 4 3 4 4 4 4 4 4 4 4 3
7 7 7 7 7 8 8 7 7 7 6 5 5 5 5 5 5 6 6 5 6 6 6 6 6 4 4 5 5 4 3 3 5 4 3 4 4 4 4 4 4 4 3 3
8 8 8 8 7 8 8 7 7 6 6 6 5 5 5 5 6 6 6 5 5 5 5 4 4 4 4 4 4 3 3 3 3 3 3 3 3 3 3 3 4 4 2 2
7 7 7 7 7 6 6 7 6 6 6 5 5 5 6 6 6 5 5 5 5 5 4 3 3 4 4 3 3 3 3 3 3 3 3 2 3 3 3 3 3 2 2 2
6 6 6 6 5 5 6 6 6 6 5 5 5 5 5 5 5 4 5 5 4 3 3 3 3 3 3 2 2 2 3 3 3 2 2 3 3 3 3 3 3 2 2 2
5 5 5 5 5 5 5 6 5 5 5 5 5 5 5 4 4 4 4 4 3 3 3 3 2 2 2 1 2 2 2 2 2 2 3 3 3 3 3 3 3 3 2 2
4 4 4 4 4 5 5 5 4 4 4 4 4 4 4 4 4 4 4 3 2 2 2 2 2 1 1 1 2 2 2 2 2 2 2 2 3 3 3 3 3 2 2 2
4 4 4 4 4 4 5 4 4 4 4 4 4 4 4 4 3 3 3 2 2 2 2 2 1 1 2 2 2 2 2 2 2 2 2 2 2 3 3 3 2 2 2 2
4 4 4 4 4 4 4 4 4 3 3 4 3 3 3 3 3 2 2 2 2 2 2 1 2 2 3 2 2 2 2 2 2 2 2 2 2 2 2 2 2 2 2 2
3 3 3 4 4 4 4 4 3 3 3 3 3 3 3 2 2 2 2 2 2 2 2 2 2 3 3 2 2 2 2 2 2 2 2 2 2 2 2 2 2 2 2 2
3 3 3 4 3 3 3 3 3 3 3 3 3 2 2 2 2 2 2 2 3 3 2 1 1 2 2 2 2 2 2 2 2 2 2 2 2 2 2 2 2 1 1 1
3 3 2 2 3 3 3 3 3 3 3 3 3 2 2 2 2 2 2 2 2 2 2 1 1 1 1 1 1 1 2 1 1 1 1 2 2 1 2 2 1 1 1 1
Wind_Direction
268 276 266 263 256 244 245 254 264 272 275 284 288 288 287 274 248 247 251 248 241 234 234 229 226 223 219 216 212 212 221 233 244 251 254 256 262 261 253 252 258 260 260 259
257 253 260 263 259 251 249 254 259 268 274 287 292 288 282 270 247 241 243 247 248 242 239 237 234 229 223 220 219 221 226 234 243 248 249 253 258 258 257 255 257 257 255 255
262 266 270 256 247 237 239 242 251 264 278 294 291 282 276 275 265 258 254 251 252 251 247 247 240 234 234 232 225 226 231 235 239 247 251 254 257 257 253 253 256 259 258 256
267 263 250 268 73 249 251 255 252 261 277 283 290 292 286 275 268 265 262 258 257 261 258 251 245 237 237 240 235 231 233 237 238 245 253 255 257 257 254 254 251 253 257 257
247 259 267 257 218 229 254 262 254 259 273 285 300 289 272 289 286 281 272 270 269 266 263 252 241 234 233 240 239 237 237 239 240 243 249 251 253 254 254 253 253 253 255 254
240 255 262 275 68 271 259 258 247 267 280 285 280 278 296 325 304 294 289 282 278 268 255 247 239 232 232 237 241 240 242 244 241 241 244 247 251 253 253 252 253 255 256 254
239 249 261 336 97 204 245 306 345 290 278 268 270 296 316 311 301 296 292 284 274 262 252 248 240 233 237 240 245 251 253 252 247 243 245 247 251 251 252 252 253 253 255 257
229 239 249 107 171 241 299 324 310 297 283 276 285 299 300 298 295 292 287 278 265 255 255 250 237 235 241 246 252 255 255 254 252 249 246 244 249 249 248 248 247 250 252 255
235 255 325 261 269 300 311 302 305 303 298 284 282 288 290 289 286 282 280 274 263 256 257 255 246 243 245 248 251 252 249 249 249 249 248 247 247 245 246 244 246 248 249 250
253 258 274 276 280 292 298 300 302 298 292 280 277 283 285 282 280 276 273 268 262 258 257 257 253 250 254 254 249 248 245 246 246 246 249 249 247 244 243 244 246 249 249 252
256 270 281 268 275 292 294 293 292 291 288 280 278 279 281 280 278 276 272 266 260 257 260 263 258 255 255 254 249 248 249 249 248 245 247 248 245 248 246 246 250 254 256 254
258 269 270 280 288 285 282 282 288 289 288 283 276 276 277 277 279 276 271 270 267 266 265 265 262 260 257 256 252 246 248 248 248 247 242 242 246 247 241 251 248 249 264 271
271 281 281 285 285 280 280 285 288 285 280 281 282 279 276 276 277 275 273 271 269 271 271 270 266 265 265 259 245 240 243 245 246 245 240 239 243 249 255 248 239 241 249 260
264 268 272 275 280 284 286 288 289 287 282 281 283 281 277 277 279 278 276 277 277 277 275 271 269 270 270 257 242 243 245 244 245 242 242 241 242 247 252 256 258 260 246 242
257 259 270 281 282 282 285 284 285 286 287 289 287 280 277 277 278 280 284 285 281 276 273 271 269 272 273 260 245 243 242 240 238 241 241 241 241 246 250 253 256 261 265 244
263 267 268 270 274 280 282 280 280 282 282 284 286 285 282 279 280 283 287 283 274 273 273 270 269 273 274 262 250 245 241 236 242 243 240 241 237 239 243 249 254 254 254 255
254 261 266 269 272 275 275 274 274 276 278 279 283 285 284 284 282 285 288 283 276 274 273 270 272 274 268 260 252 247 242 225 220 234 238 241 242 243 246 249 250 256 258 258
253 258 261 266 270 274 275 274 274 274 275 279 281 276 274 273 275 281 288 290 283 278 276 273 274 276 271 262 251 243 237 234 224 228 234 238 244 245 247 248 249 257 264 235
264 266 269 271 270 270 271 272 274 274 274 270 269 274 278 278 277 280 286 284 278 279 284 286 280 267 261 252 239 233 232 231 231 235 238 238 241 246 248 249 245 248 251 244
270 273 275 276 275 271 271 274 277 276 274 269 269 274 280 282 283 284 285 284 283 289 289 285 263 256 249 226 213 229 229 230 233 237 241 241 241 245 245 246 242 235 239 240
276 275 275 277 281 282 277 276 273 273 277 273 269 273 279 284 283 281 282 288 298 305 292 272 255 248 247 232 214 232 232 237 239 241 240 240 241 244 247 249 245 237 235 242
280 276 276 281 287 291 292 286 277 274 276 275 277 281 284 286 286 284 280 287 301 305 282 262 257 250 249 243 234 230 235 245 247 245 248 252 248 246 245 250 252 250 241 232
284 278 280 285 289 297 300 293 283 277 273 273 274 277 279 282 278 275 282 293 298 292 285 277 279 245 242 241 240 237 239 244 248 249 251 255 255 252 251 250 251 251 243 236
284 282 284 288 289 285 288 294 294 290 286 283 278 279 279 276 274 275 287 286 283 281 280 286 265 241 236 248 248 247 248 247 245 248 248 250 254 258 260 259 255 250 242 233
280 283 283 283 282 282 287 294 296 296 295 293 292 291 287 276 273 282 285 281 286 285 282 270 257 255 252 252 249 252 255 256 258 254 247 250 255 258 261 261 258 251 238 231
274 275 274 276 283 286 286 287 288 292 294 294 295 300 303 299 284 279 276 270 275 284 287 281 268 257 261 263 259 260 260 255 245 243 248 253 253 251 254 256 255 251 243 241
279 281 280 284 286 287 285 282 280 284 287 286 285 291 292 291 288 286 284 281 280 282 288 283 275 271 276 274 269 266 260 253 249 249 254 257 260 251 237 239 241 240 248 248